"startDT [UTC]","vpos","CH4 [ppm]","stdev(CH4) [ppm]","CO2 [ppm]","stdev(CO2) [ppm]","H2O [ppm]","stdev(H2O)","p_LGR [torr]","T_LGR [C]","mt1_LGR [us]","mt2_LGR [us]","T_ECpre [C]","T_EC1 [C]","T_EC2 [C]","p_inlet [hPa]","p_in [hPa]","p_out [hPa]","T_inlet [C]","RH_inlet [%]","dwpt_inlet [C]","T_vent [C]","RH_vent [%]","dwpt_vent [C]","flow_vent [l min-1]","flow_inlet [l min-1]","dwpt_sample [C]","T_room [C]"
2012-04-15 00:00:00,0.0,1.9099,0.0011,402.35,0.40,97.6,43.1,138.14,28.34,24.62,36.32,0.04,-272.73,-272.73,-54,558,-924,23.0,4.2,-20.7,22.9,4.4,-20.3,5.73,2.31,-26.2,26.0
2012-04-15 00:01:00,0.0,1.9111,0.0012,402.42,0.34,91.5,44.7,138.14,28.33,24.61,36.33,0.04,-272.73,-272.74,-54,558,-924,23.0,4.3,-20.6,22.9,4.4,-20.2,5.73,2.42,-26.1,26.4
2012-04-15 00:02:00,0.0,1.9110,0.0010,402.22,0.37,96.4,36.5,138.14,28.32,24.62,36.33,0.04,-272.74,-272.73,-54,557,-924,23.0,4.3,-20.5,22.9,4.4,-20.2,5.73,2.35,-26.1,26.8
2012-04-15 00:03:00,0.0,1.9114,0.0009,402.37,0.35,120.4,34.6,138.13,28.32,24.62,36.33,0.04,-272.73,-272.74,-53,557,-924,23.0,4.2,-20.7,23.0,4.4,-20.3,5.73,2.28,-26.0,27.1
2012-04-15 00:04:00,0.0,1.9120,0.0010,402.36,0.34,116.4,37.3,138.13,28.32,24.61,36.33,0.04,-272.74,-272.74,-54,558,-924,23.0,4.2,-20.7,23.0,4.4,-20.2,5.73,2.40,-25.9,27.2
2012-04-15 00:05:00,0.0,1.9120,0.0010,402.50,0.37,139.5,41.5,138.12,28.32,24.62,36.33,0.04,-272.73,-272.74,-54,558,-924,23.1,4.2,-20.6,23.1,4.4,-20.1,5.73,2.41,-25.8,27.4
2012-04-15 00:06:00,0.0,1.9125,0.0010,402.37,0.39,144.9,34.8,138.12,28.33,24.62,36.34,0.04,-272.74,-272.74,-53,557,-923,23.1,4.2,-20.5,23.1,4.4,-20.1,5.73,2.32,-25.7,27.5
2012-04-15 00:07:00,0.0,1.9127,0.0009,402.38,0.42,158.5,40.5,138.11,28.34,24.62,36.34,0.04,-272.74,-272.74,-53,558,-924,23.1,4.2,-20.5,23.1,4.4,-20.1,5.73,2.29,-25.6,27.6
2012-04-15 00:08:00,0.0,1.9128,0.0010,402.42,0.39,163.6,34.9,138.11,28.35,24.62,36.34,0.04,-272.74,-272.74,-54,558,-923,23.1,4.2,-20.5,23.1,4.4,-20.2,5.73,2.35,-25.6,27.7
2012-04-15 00:09:00,0.0,1.9132,0.0010,402.38,0.35,171.4,32.0,138.11,28.37,24.61,36.34,0.04,-272.73,-272.73,-53,558,-924,23.2,4.2,-20.5,23.2,4.4,-20.0,5.73,2.40,-25.5,27.8
2012-04-15 00:10:00,0.0,1.9136,0.0010,402.36,0.35,185.4,41.4,138.11,28.38,24.62,36.35,0.04,-272.74,-272.74,-53,558,-923,23.2,4.3,-20.4,23.2,4.4,-20.0,5.73,2.38,-25.4,27.9
2012-04-15 00:11:00,0.0,1.9140,0.0010,402.45,0.38,174.3,32.6,138.10,28.40,24.61,36.34,0.04,-272.74,-272.74,-53,558,-924,23.2,4.2,-20.4,23.2,4.4,-20.0,5.73,2.32,-25.3,28.0
2012-04-15 00:12:00,0.0,1.9141,0.0010,402.38,0.46,184.6,37.9,138.10,28.42,24.62,36.35,0.04,-272.74,-272.74,-54,558,-923,23.3,4.2,-20.4,23.3,4.4,-20.0,5.73,2.30,-25.3,28.1
2012-04-15 00:13:00,0.0,1.9140,0.0010,402.56,0.45,200.0,35.2,138.10,28.44,24.62,36.34,0.04,-272.73,-272.73,-53,558,-923,23.3,4.2,-20.5,23.3,4.4,-20.1,5.73,2.34,-25.2,28.1
2012-04-15 00:14:00,0.0,1.9149,0.0011,402.59,0.45,200.3,34.5,138.10,28.46,24.62,36.35,0.04,-272.73,-272.74,-53,558,-923,23.3,4.2,-20.5,23.3,4.3,-20.1,5.73,2.39,-25.1,28.1
2012-04-15 00:15:00,0.0,1.9149,0.0009,402.64,0.40,202.0,36.4,138.10,28.48,24.62,36.35,0.04,-272.74,-272.73,-53,558,-924,23.4,4.1,-20.6,23.3,4.3,-20.2,5.73,2.38,-25.1,27.4
2012-04-15 00:16:00,0.0,1.9149,0.0010,402.54,0.47,198.1,31.3,138.10,28.49,24.61,36.35,0.04,-272.73,-272.74,-53,559,-924,23.4,4.1,-20.7,23.3,4.3,-20.3,5.73,2.28,-25.1,27.0
2012-04-15 00:17:00,0.0,1.9142,0.0007,402.53,0.36,191.4,36.6,138.11,28.50,24.62,36.35,0.04,-272.74,-272.74,-54,559,-924,23.4,4.1,-20.8,23.3,4.2,-20.3,5.73,2.40,-25.2,26.7
2012-04-15 00:18:00,0.0,1.9137,0.0010,402.61,0.42,182.0,38.0,138.11,28.50,24.62,36.35,0.04,-272.74,-272.74,-53,559,-924,23.3,4.1,-20.7,23.3,4.3,-20.3,5.73,2.39,-25.3,26.4
2012-04-15 00:19:00,0.0,1.9135,0.0008,402.45,0.40,177.8,35.9,138.12,28.50,24.62,36.35,0.04,-272.74,-272.73,-54,559,-924,23.3,4.1,-20.7,23.3,4.3,-20.2,5.73,2.25,-25.4,26.2
2012-04-15 00:20:00,0.0,1.9136,0.0009,402.42,0.40,168.1,38.2,138.12,28.49,24.61,36.34,0.04,-272.74,-272.73,-54,559,-924,23.3,4.2,-20.6,23.2,4.3,-20.2,5.73,2.44,-25.5,26.2
2012-04-15 00:21:00,0.0,1.9129,0.0011,402.50,0.42,153.9,35.3,138.12,28.48,24.62,36.33,0.04,-272.74,-272.74,-54,559,-924,23.3,4.2,-20.6,23.2,4.4,-20.1,5.73,2.39,-25.6,26.1
2012-04-15 00:22:00,0.0,1.9123,0.0010,402.43,0.37,143.3,46.8,138.13,28.47,24.61,36.34,0.04,-272.73,-272.73,-53,559,-925,23.2,4.2,-20.5,23.1,4.4,-20.1,5.73,2.25,-25.7,26.0
2012-04-15 00:23:00,0.0,1.9119,0.0010,402.41,0.34,134.7,35.5,138.13,28.45,24.62,36.33,0.04,-272.74,-272.74,-54,559,-924,23.2,4.2,-20.4,23.1,4.4,-20.1,5.73,2.39,-25.7,26.0
2012-04-15 00:24:00,0.0,1.9107,0.0011,402.26,0.38,125.9,36.9,138.13,28.44,24.62,36.33,0.04,-272.74,-272.74,-54,559,-924,23.1,4.3,-20.4,23.1,4.4,-20.0,5.73,2.44,-25.8,25.8
2012-04-15 00:25:00,0.0,1.9103,0.0010,402.24,0.41,111.4,39.8,138.14,28.42,24.61,36.33,0.04,-272.73,-272.74,-54,559,-925,23.1,4.3,-20.3,23.0,4.5,-19.9,5.73,2.28,-25.9,25.8
2012-04-15 00:26:00,0.0,1.9105,0.0012,402.26,0.36,100.9,43.4,138.14,28.40,24.61,36.33,0.04,-272.73,-272.74,-54,558,-924,23.1,4.4,-20.1,23.0,4.6,-19.7,5.73,2.31,-25.9,25.8
2012-04-15 00:27:00,0.0,1.9100,0.0009,402.18,0.38,105.6,37.9,138.14,28.39,24.61,36.33,0.04,-272.74,-272.74,-54,558,-924,23.0,4.5,-20.0,22.9,4.6,-19.6,5.73,2.47,-26.0,26.3
2012-04-15 00:28:00,0.0,1.9096,0.0009,402.22,0.39,97.3,37.2,138.14,28.37,24.62,36.33,0.04,-272.73,-272.74,-54,558,-924,23.1,4.5,-19.8,23.0,4.7,-19.5,5.73,2.25,-25.9,26.7
2012-04-15 00:29:00,0.0,1.9102,0.0010,402.26,0.41,113.7,39.2,138.13,28.36,24.62,36.33,0.04,-272.74,-272.74,-54,558,-924,23.1,4.5,-19.8,23.0,4.7,-19.4,5.73,2.42,-25.8,27.0
2012-04-15 00:30:00,0.0,1.9103,0.0010,402.22,0.35,129.1,41.1,138.13,28.36,24.62,36.34,0.04,-272.74,-272.73,-54,558,-924,23.1,4.5,-19.8,23.0,4.7,-19.4,5.73,2.38,-25.7,27.2
2012-04-15 00:31:00,0.0,1.9106,0.0011,402.19,0.38,133.0,36.7,138.12,28.36,24.62,36.34,0.04,-272.74,-272.74,-54,558,-924,23.1,4.5,-19.8,23.1,4.7,-19.4,5.73,2.29,-25.6,27.4
2012-04-15 00:32:00,0.0,1.9111,0.0012,402.19,0.41,151.4,44.0,138.12,28.37,24.62,36.34,0.04,-272.73,-272.74,-54,558,-924,23.2,4.5,-19.8,23.1,4.6,-19.5,5.73,2.33,-25.6,27.5
2012-04-15 00:33:00,0.0,1.9118,0.0011,402.25,0.45,165.6,36.2,138.12,28.38,24.62,36.34,0.04,-272.73,-272.73,-53,558,-924,23.2,4.5,-19.9,23.2,4.6,-19.5,5.73,2.41,-25.5,27.6
2012-04-15 00:34:00,0.0,1.9125,0.0010,402.46,0.41,170.2,36.0,138.11,28.40,24.62,36.34,0.04,-272.74,-272.74,-54,558,-924,23.2,4.4,-20.0,23.2,4.6,-19.6,5.73,2.39,-25.4,27.7
2012-04-15 00:35:00,0.0,1.9129,0.0010,402.53,0.49,181.7,41.4,138.11,28.41,24.61,36.34,0.04,-272.74,-272.74,-54,558,-924,23.2,4.3,-20.2,23.2,4.5,-19.8,5.73,2.33,-25.3,27.8
2012-04-15 00:36:00,0.0,1.9138,0.0009,402.60,0.33,188.8,33.5,138.11,28.42,24.62,36.34,0.04,-272.73,-272.74,-53,558,-924,23.3,4.2,-20.4,23.3,4.4,-20.0,5.73,2.30,-25.2,27.9
2012-04-15 00:37:00,0.0,1.9138,0.0008,402.58,0.43,193.9,34.2,138.10,28.44,24.62,36.34,0.04,-272.74,-272.74,-53,558,-924,23.3,4.2,-20.5,23.3,4.3,-20.1,5.73,2.33,-25.1,28.0
2012-04-15 00:38:00,0.0,1.9139,0.0010,402.61,0.44,198.6,32.4,138.10,28.46,24.62,36.34,0.04,-272.73,-272.73,-53,558,-924,23.3,4.2,-20.6,23.3,4.3,-20.1,5.73,2.39,-25.1,28.1
2012-04-15 00:39:00,0.0,1.9149,0.0010,402.68,0.41,212.3,37.3,138.10,28.48,24.62,36.35,0.04,-272.73,-272.73,-54,558,-924,23.4,4.2,-20.5,23.3,4.3,-20.1,5.73,2.39,-25.0,28.2
2012-04-15 00:40:00,0.0,1.9152,0.0010,402.60,0.41,216.8,34.3,138.10,28.50,24.61,36.35,0.04,-272.74,-272.74,-53,558,-924,23.4,4.2,-20.4,23.4,4.4,-20.0,5.73,2.34,-24.9,28.2
2012-04-15 00:41:00,0.0,1.9144,0.0007,402.66,0.41,221.3,33.7,138.10,28.52,24.62,36.35,0.04,-272.73,-272.74,-53,558,-924,23.5,4.3,-20.2,23.4,4.4,-19.8,5.73,2.27,-24.9,27.9
2012-04-15 00:42:00,0.0,1.9149,0.0010,402.36,0.39,209.3,37.8,138.10,28.53,24.62,36.36,0.04,-272.73,-272.73,-54,559,-924,23.5,4.3,-20.2,23.4,4.5,-19.7,5.73,2.41,-24.9,27.3
2012-04-15 00:43:00,0.0,1.9147,0.0012,402.48,0.41,216.3,33.9,138.10,28.54,24.62,36.35,0.04,-272.74,-272.73,-53,559,-924,23.5,4.3,-20.0,23.4,4.5,-19.6,5.73,2.31,-24.9,26.9
2012-04-15 00:44:00,0.0,1.9140,0.0009,402.65,0.42,215.4,40.6,138.11,28.54,24.62,36.35,0.04,-272.73,-272.74,-54,559,-924,23.4,4.4,-19.9,23.4,4.6,-19.5,5.73,2.44,-25.0,26.6
2012-04-15 00:45:00,0.0,1.9137,0.0012,402.52,0.38,198.3,32.3,138.11,28.54,24.62,36.34,0.04,-272.73,-272.74,-54,559,-924,23.4,4.4,-19.7,23.4,4.6,-19.4,5.73,2.24,-25.1,26.4
2012-04-15 00:46:00,0.0,1.9133,0.0011,402.54,0.53,181.2,38.0,138.11,28.54,24.62,36.34,0.04,-272.73,-272.73,-53,560,-924,23.4,4.5,-19.6,23.3,4.7,-19.2,5.73,2.42,-25.2,26.3
2012-04-15 00:47:00,0.0,1.9125,0.0010,402.45,0.35,178.7,45.1,138.12,28.53,24.62,36.34,0.04,-272.74,-272.74,-54,559,-925,23.4,4.6,-19.5,23.3,4.7,-19.1,5.73,2.39,-25.3,26.1
2012-04-15 00:48:00,0.0,1.9126,0.0010,402.41,0.38,169.4,32.8,138.12,28.52,24.62,36.34,0.04,-272.73,-272.73,-54,560,-925,23.3,4.6,-19.5,23.3,4.7,-19.1,5.73,2.24,-25.3,26.0
2012-04-15 00:49:00,0.0,1.9121,0.0012,402.40,0.34,158.4,38.5,138.13,28.51,24.62,36.34,0.04,-272.73,-272.74,-54,559,-924,23.3,4.5,-19.6,23.2,4.7,-19.3,5.73,2.42,-25.4,26.0
2012-04-15 00:50:00,0.0,1.9116,0.0008,402.37,0.34,146.9,38.6,138.13,28.50,24.62,36.33,0.04,-272.74,-272.74,-54,559,-924,23.3,4.5,-19.6,23.2,4.7,-19.2,5.73,2.40,-25.5,25.9
2012-04-15 00:51:00,0.0,1.9107,0.0009,402.35,0.43,139.3,35.8,138.13,28.48,24.62,36.34,0.04,-272.74,-272.74,-54,559,-924,23.3,4.5,-19.7,23.2,4.7,-19.2,5.73,2.25,-25.5,25.8
2012-04-15 00:52:00,0.0,1.9098,0.0009,402.54,0.42,132.2,33.9,138.14,28.46,24.62,36.34,0.04,-272.74,-272.74,-54,559,-925,23.2,4.6,-19.6,23.1,4.7,-19.2,5.73,2.39,-25.6,25.8
2012-04-15 00:53:00,0.0,1.9096,0.0010,402.73,0.45,120.3,36.6,138.14,28.45,24.62,36.33,0.04,-272.73,-272.74,-54,559,-924,23.2,4.6,-19.4,23.1,4.8,-19.1,5.73,2.44,-25.7,25.7
2012-04-15 00:54:00,0.0,1.9092,0.0010,402.50,0.43,114.2,37.0,138.14,28.43,24.62,36.33,0.04,-272.74,-272.74,-54,559,-924,23.2,4.7,-19.3,23.1,4.8,-19.0,5.73,2.24,-25.7,26.2
2012-04-15 00:55:00,0.0,1.9092,0.0009,402.67,0.37,114.3,29.5,138.14,28.42,24.62,36.33,0.04,-272.74,-272.74,-54,559,-924,23.2,4.7,-19.3,23.1,4.9,-18.9,5.73,2.45,-25.6,26.7
2012-04-15 00:56:00,0.0,1.9095,0.0010,402.55,0.37,137.9,38.0,138.13,28.41,24.62,36.34,0.04,-272.74,-272.73,-54,559,-924,23.2,4.6,-19.4,23.1,4.8,-19.0,5.73,2.27,-25.6,27.0
2012-04-15 00:57:00,0.0,1.9101,0.0009,402.55,0.37,151.1,33.6,138.13,28.41,24.62,36.34,0.04,-272.73,-272.74,-54,559,-924,23.2,4.6,-19.4,23.1,4.8,-19.0,5.73,2.35,-25.4,27.3
2012-04-15 00:58:00,0.0,1.9104,0.0011,402.53,0.39,152.2,38.6,138.12,28.41,24.62,36.34,0.04,-272.74,-272.74,-54,558,-924,23.3,4.6,-19.5,23.2,4.8,-19.0,5.73,2.42,-25.4,27.4
2012-04-15 00:59:00,0.0,1.9111,0.0010,402.65,0.34,172.1,32.7,138.12,28.42,24.62,36.34,0.04,-272.73,-272.73,-54,559,-924,23.3,4.6,-19.5,23.2,4.7,-19.2,5.73,2.36,-25.3,27.6
2012-04-15 01:00:00,0.0,1.9118,0.0011,402.62,0.44,176.3,34.5,138.11,28.43,24.62,36.34,0.04,-272.74,-272.73,-54,558,-924,23.3,4.5,-19.6,23.3,4.7,-19.2,5.73,2.30,-25.2,27.7
2012-04-15 01:01:00,0.0,1.9121,0.0009,402.64,0.46,185.2,39.9,138.11,28.44,24.62,36.35,0.04,-272.74,-272.74,-54,559,-924,23.3,4.5,-19.6,23.3,4.7,-19.2,5.73,2.31,-25.1,27.8
2012-04-15 01:02:00,0.0,1.9127,0.0010,402.77,0.40,200.8,34.4,138.11,28.46,24.62,36.34,0.04,-272.73,-272.74,-54,558,-924,23.4,4.5,-19.6,23.3,4.7,-19.2,5.73,2.37,-25.0,27.9
2012-04-15 01:03:00,0.0,1.9131,0.0009,402.89,0.43,206.5,38.5,138.10,28.48,24.62,36.34,0.04,-272.74,-272.73,-54,559,-924,23.4,4.5,-19.7,23.4,4.6,-19.3,5.73,2.40,-24.9,28.0
2012-04-15 01:04:00,0.0,1.9137,0.0008,402.77,0.46,219.8,39.6,138.10,28.49,24.62,36.35,0.04,-272.73,-272.73,-53,559,-924,23.5,4.4,-19.9,23.4,4.6,-19.4,5.73,2.37,-24.9,28.1
2012-04-15 01:05:00,0.0,1.9138,0.0008,402.96,0.43,215.1,34.8,138.10,28.51,24.62,36.35,0.04,-272.74,-272.74,-54,559,-923,23.5,4.3,-20.0,23.4,4.5,-19.6,5.73,2.30,-24.8,28.2
2012-04-15 01:06:00,0.0,1.9143,0.0011,403.05,0.46,215.5,38.3,138.10,28.53,24.62,36.35,0.04,-272.74,-272.73,-54,559,-924,23.5,4.3,-20.1,23.5,4.5,-19.6,5.73,2.30,-24.7,28.3
2012-04-15 01:07:00,0.0,1.9141,0.0009,403.14,0.41,224.0,32.8,138.10,28.55,24.62,36.35,0.04,-272.73,-272.74,-53,559,-924,23.6,4.3,-20.1,23.5,4.4,-19.7,5.73,2.35,-24.6,28.0
2012-04-15 01:08:00,0.0,1.9148,0.0010,403.58,0.47,233.2,36.1,138.10,28.57,24.62,36.35,0.04,-272.74,-272.74,-53,559,-924,23.6,4.2,-20.2,23.5,4.4,-19.7,5.73,2.43,-24.6,27.4
2012-04-15 01:09:00,0.0,1.9142,0.0009,403.14,0.44,230.6,42.1,138.10,28.58,24.62,36.36,0.04,-272.73,-272.74,-54,560,-924,23.6,4.2,-20.2,23.5,4.4,-19.8,5.73,2.26,-24.7,27.0
2012-04-15 01:10:00,0.0,1.9147,0.0010,403.12,0.46,215.4,37.8,138.11,28.59,24.62,36.35,0.04,-272.73,-272.73,-54,560,-924,23.5,4.2,-20.3,23.5,4.4,-19.9,5.73,2.42,-24.7,26.8
2012-04-15 01:11:00,0.0,1.9142,0.0008,403.24,0.49,210.6,33.6,138.11,28.59,24.62,36.35,0.04,-272.74,-272.74,-53,560,-924,23.5,4.2,-20.4,23.5,4.4,-20.0,5.73,2.36,-24.8,26.6
2012-04-15 01:12:00,0.0,1.9138,0.0011,403.41,0.47,208.7,29.1,138.11,28.59,24.62,36.35,0.04,-272.74,-272.74,-54,560,-925,23.5,4.2,-20.5,23.4,4.3,-20.0,5.73,2.26,-24.9,26.5
2012-04-15 01:13:00,0.0,1.9137,0.0009,403.49,0.46,197.0,37.7,138.12,28.58,24.62,36.35,0.04,-272.73,-272.74,-54,560,-925,23.5,4.1,-20.6,23.4,4.3,-20.2,5.73,2.46,-25.0,26.3
2012-04-15 01:14:00,0.0,1.9136,0.0011,403.89,0.44,190.0,36.5,138.12,28.57,24.62,36.35,0.04,-272.74,-272.74,-54,560,-924,23.4,4.1,-20.6,23.3,4.3,-20.3,5.73,2.32,-25.1,26.3
2012-04-15 01:15:00,0.0,1.9132,0.0011,403.94,0.42,171.1,37.8,138.13,28.56,24.62,36.35,0.04,-272.74,-272.74,-54,560,-925,23.4,4.1,-20.7,23.3,4.3,-20.3,5.73,2.29,-25.2,26.1
2012-04-15 01:16:00,0.0,1.9128,0.0009,403.73,0.48,174.8,41.3,138.13,28.55,24.62,36.35,0.04,-272.73,-272.74,-54,560,-924,23.4,4.1,-20.7,23.3,4.3,-20.3,5.73,2.46,-25.2,26.2
2012-04-15 01:17:00,0.0,1.9124,0.0009,403.58,0.39,168.1,42.1,138.13,28.54,24.62,36.35,0.04,-272.74,-272.74,-54,560,-925,23.4,4.1,-20.7,23.3,4.3,-20.3,5.73,2.32,-25.2,26.2
2012-04-15 01:18:00,0.0,1.9118,0.0010,403.58,0.38,156.2,34.5,138.13,28.52,24.62,36.34,0.04,-272.74,-272.74,-54,559,-925,23.3,4.1,-20.7,23.2,4.3,-20.3,5.73,2.27,-25.3,26.1
2012-04-15 01:19:00,0.0,1.9121,0.0012,403.29,0.42,144.2,36.3,138.14,28.50,24.62,36.34,0.04,-272.74,-272.74,-54,560,-925,23.3,4.1,-20.7,23.2,4.3,-20.3,5.73,2.46,-25.4,26.0
2012-04-15 01:20:00,0.0,1.9120,0.0008,403.06,0.43,146.4,35.9,138.14,28.49,24.62,36.34,0.04,-272.73,-272.74,-54,560,-925,23.3,4.2,-20.6,23.2,4.3,-20.2,5.73,2.34,-25.4,25.9
2012-04-15 01:21:00,0.0,1.9118,0.0009,403.02,0.38,134.1,35.4,138.14,28.47,24.62,36.33,0.04,-272.74,-272.74,-54,559,-924,23.3,4.2,-20.5,23.1,4.4,-20.1,5.73,2.28,-25.4,26.4
2012-04-15 01:22:00,0.0,1.9116,0.0011,403.06,0.44,141.7,44.3,138.13,28.46,24.62,36.34,0.04,-272.74,-272.73,-54,559,-924,23.3,4.3,-20.3,23.2,4.4,-19.9,5.73,2.39,-25.3,26.9
2012-04-15 01:23:00,0.0,1.9110,0.0011,403.50,0.38,146.5,41.2,138.13,28.46,24.62,36.33,0.04,-272.73,-272.74,-54,559,-924,23.3,4.3,-20.2,23.2,4.5,-19.8,5.73,2.39,-25.2,27.2
2012-04-15 01:24:00,0.0,1.9115,0.0012,403.43,0.50,170.4,34.6,138.12,28.46,24.62,36.34,0.04,-272.73,-272.73,-54,559,-924,23.3,4.4,-20.0,23.2,4.5,-19.7,5.73,2.28,-25.1,27.4
2012-04-15 01:25:00,0.0,1.9131,0.0010,403.00,0.40,180.3,42.6,138.12,28.46,24.62,36.35,0.04,-272.73,-272.74,-54,559,-924,23.3,4.4,-20.0,23.3,4.5,-19.6,5.73,2.33,-25.0,27.6
2012-04-15 01:26:00,0.0,1.9125,0.0011,403.32,0.46,199.1,40.4,138.11,28.47,24.62,36.34,0.04,-272.74,-272.74,-54,559,-924,23.4,4.4,-19.9,23.3,4.6,-19.5,5.73,2.40,-25.0,27.7
2012-04-15 01:27:00,0.0,1.9144,0.0010,402.83,0.48,189.6,36.6,138.11,28.49,24.62,36.35,0.04,-272.73,-272.73,-54,559,-924,23.4,4.4,-19.8,23.3,4.6,-19.4,5.73,2.39,-24.9,27.9
2012-04-15 01:28:00,0.0,1.9150,0.0012,402.64,0.47,204.9,35.1,138.11,28.50,24.62,36.35,0.04,-272.74,-272.74,-54,559,-924,23.5,4.4,-19.8,23.4,4.6,-19.4,5.73,2.33,-24.8,28.0
2012-04-15 01:29:00,0.0,1.9159,0.0010,402.54,0.40,216.5,28.4,138.10,28.52,24.62,36.35,0.04,-272.74,-272.74,-54,559,-924,23.5,4.4,-19.7,23.4,4.6,-19.3,5.73,2.29,-24.7,28.1
2012-04-15 01:30:00,0.0,1.9161,0.0010,402.68,0.38,230.0,39.2,138.10,28.54,24.61,36.35,0.04,-272.73,-272.73,-53,560,-924,23.5,4.5,-19.7,23.5,4.6,-19.2,5.73,2.32,-24.6,28.2
2012-04-15 01:31:00,0.0,1.9165,0.0010,402.70,0.45,226.4,46.9,138.10,28.56,24.62,36.35,0.04,-272.74,-272.74,-54,559,-924,23.6,4.5,-19.4,23.5,4.7,-19.0,5.73,2.38,-24.6,28.3
2012-04-15 01:32:00,0.0,1.9163,0.0009,402.62,0.44,233.1,35.5,138.09,28.58,24.62,36.35,0.04,-272.74,-272.74,-54,560,-924,23.6,4.6,-19.2,23.5,4.8,-18.8,5.73,2.39,-24.5,28.3
2012-04-15 01:33:00,0.0,1.9168,0.0010,402.84,0.43,230.4,37.2,138.09,28.60,24.62,36.35,0.04,-272.74,-272.73,-54,559,-924,23.7,4.7,-19.0,23.6,4.9,-18.6,5.73,2.35,-24.4,28.1
2012-04-15 01:34:00,0.0,1.9170,0.0009,402.72,0.47,234.1,34.5,138.10,28.62,24.62,36.35,0.04,-272.73,-272.73,-53,560,-924,23.7,4.7,-18.9,23.6,4.9,-18.5,5.73,2.25,-24.4,27.5
2012-04-15 01:35:00,0.0,1.9168,0.0009,402.76,0.46,231.9,43.9,138.10,28.63,24.62,36.35,0.04,-272.74,-272.74,-54,560,-924,23.7,4.7,-18.9,23.6,4.9,-18.4,5.73,2.46,-24.4,27.1
2012-04-15 01:36:00,0.0,1.9164,0.0010,402.71,0.47,226.5,33.6,138.10,28.64,24.62,36.35,0.04,-272.73,-272.74,-54,560,-924,23.7,4.8,-18.7,23.6,5.0,-18.3,5.73,2.25,-24.5,26.8
2012-04-15 01:37:00,0.0,1.9167,0.0010,402.64,0.39,232.1,39.1,138.11,28.64,24.62,36.35,0.04,-272.74,-272.73,-54,560,-924,23.6,4.8,-18.6,23.5,5.0,-18.2,5.73,2.41,-24.6,26.6
2012-04-15 01:38:00,0.0,1.9159,0.0010,402.68,0.50,219.9,39.0,138.11,28.64,24.62,36.35,0.04,-272.74,-272.74,-54,561,-925,23.6,4.9,-18.6,23.5,5.1,-18.2,5.73,2.37,-24.7,26.5
2012-04-15 01:39:00,0.0,1.9158,0.0009,402.62,0.38,221.9,36.7,138.12,28.63,24.62,36.35,0.04,-272.74,-272.74,-54,561,-925,23.6,4.9,-18.5,23.5,5.1,-18.1,5.73,2.26,-24.7,26.4
2012-04-15 01:40:00,0.0,1.9148,0.0010,402.65,0.47,214.1,35.1,138.12,28.63,24.62,36.35,0.04,-272.74,-272.73,-54,561,-925,23.6,4.9,-18.4,23.5,5.1,-18.0,5.73,2.46,-24.8,26.3
2012-04-15 01:41:00,0.0,1.9143,0.0010,402.67,0.41,196.6,32.4,138.12,28.62,24.62,36.35,0.04,-272.73,-272.74,-54,561,-925,23.5,5.0,-18.4,23.4,5.2,-17.9,5.73,2.30,-24.9,26.2
2012-04-15 01:42:00,0.0,1.9138,0.0010,402.61,0.46,187.0,34.1,138.13,28.61,24.62,36.35,0.04,-272.74,-272.74,-54,561,-925,23.5,5.0,-18.3,23.4,5.2,-17.9,5.73,2.31,-24.9,26.2
2012-04-15 01:43:00,0.0,1.9138,0.0010,402.65,0.39,174.5,32.4,138.13,28.60,24.62,36.34,0.04,-272.74,-272.74,-54,561,-925,23.5,5.1,-18.2,23.4,5.3,-17.8,5.73,2.46,-25.0,26.2
2012-04-15 01:44:00,0.0,1.9135,0.0010,402.52,0.40,167.6,35.6,138.13,28.58,24.62,36.34,0.04,-272.74,-272.74,-54,560,-925,23.5,5.1,-18.1,23.4,5.3,-17.7,5.73,2.26,-25.0,26.1
2012-04-15 01:45:00,0.0,1.9126,0.0010,402.43,0.43,168.1,37.0,138.13,28.57,24.62,36.34,0.04,-272.74,-272.74,-55,561,-925,23.5,5.1,-18.1,23.3,5.3,-17.7,5.73,2.34,-25.1,26.0
2012-04-15 01:46:00,0.0,1.9119,0.0011,402.41,0.38,164.1,36.6,138.13,28.56,24.62,36.34,0.04,-272.74,-272.74,-54,561,-925,23.4,5.1,-18.2,23.3,5.3,-17.8,5.73,2.45,-25.1,25.9
2012-04-15 01:47:00,0.0,1.9115,0.0009,402.55,0.45,143.4,37.8,138.14,28.54,24.62,36.35,0.04,-272.74,-272.73,-54,560,-925,23.4,5.0,-18.3,23.3,5.2,-18.0,5.73,2.25,-25.1,25.9
2012-04-15 01:48:00,0.0,1.9116,0.0010,402.60,0.45,160.5,39.6,138.14,28.53,24.62,36.34,0.04,-272.74,-272.74,-55,560,-925,23.4,4.9,-18.5,23.3,5.1,-18.2,5.73,2.42,-25.1,26.5
2012-04-15 01:49:00,0.0,1.9116,0.0010,402.53,0.41,164.7,37.8,138.13,28.52,24.62,36.34,0.04,-272.74,-272.73,-54,560,-925,23.4,4.8,-18.8,23.3,5.0,-18.4,5.73,2.27,-25.1,27.0
2012-04-15 01:50:00,0.0,1.9119,0.0010,402.53,0.42,171.9,36.9,138.13,28.51,24.62,36.34,0.04,-272.74,-272.74,-55,560,-924,23.4,4.7,-19.2,23.3,4.9,-18.8,5.73,2.41,-25.0,27.3
2012-04-15 01:51:00,0.0,1.9123,0.0011,402.45,0.46,185.6,31.1,138.12,28.52,24.62,36.34,0.04,-272.73,-272.74,-54,560,-924,23.5,4.5,-19.4,23.4,4.7,-19.0,5.73,2.38,-24.9,27.5
2012-04-15 01:52:00,0.0,1.9138,0.0011,402.33,0.49,191.0,37.1,138.12,28.53,24.62,36.35,0.04,-272.73,-272.74,-54,560,-924,23.5,4.4,-19.7,23.4,4.6,-19.3,5.73,2.30,-24.8,27.7
2012-04-15 01:53:00,0.0,1.9149,0.0012,402.38,0.46,194.3,37.4,138.11,28.54,24.62,36.35,0.04,-272.74,-272.74,-54,560,-924,23.5,4.3,-19.9,23.5,4.5,-19.5,5.73,2.30,-24.7,27.8
2012-04-15 01:54:00,0.0,1.9155,0.0008,402.37,0.48,216.7,36.3,138.11,28.55,24.62,36.35,0.04,-272.74,-272.74,-54,560,-924,23.6,4.3,-20.1,23.5,4.4,-19.7,5.73,2.36,-24.6,28.0
2012-04-15 01:55:00,0.0,1.9160,0.0010,402.41,0.51,219.7,35.4,138.10,28.57,24.62,36.35,0.04,-272.74,-272.74,-54,560,-924,23.6,4.2,-20.2,23.5,4.4,-19.7,5.73,2.40,-24.5,28.1
2012-04-15 01:56:00,0.0,1.9164,0.0009,402.58,0.45,226.8,35.1,138.10,28.59,24.62,36.35,0.04,-272.73,-272.74,-54,560,-924,23.6,4.3,-20.1,23.6,4.4,-19.7,5.73,2.37,-24.4,28.2
2012-04-15 01:57:00,0.0,1.9167,0.0008,402.63,0.38,228.2,31.3,138.10,28.61,24.61,36.35,0.04,-272.74,-272.73,-54,560,-924,23.7,4.3,-20.0,23.6,4.4,-19.6,5.73,2.32,-24.4,28.3
2012-04-15 01:58:00,0.0,1.9172,0.0009,402.76,0.54,247.9,31.3,138.09,28.63,24.61,36.35,0.04,-272.74,-272.74,-54,560,-924,23.7,4.3,-20.0,23.7,4.4,-19.6,5.73,2.29,-24.3,28.4
2012-04-15 01:59:00,0.0,1.9172,0.0009,402.82,0.43,254.8,39.0,138.09,28.65,24.62,36.35,0.04,-272.74,-272.74,-54,560,-924,23.8,4.3,-19.9,23.7,4.5,-19.5,5.73,2.32,-24.2,28.2
2012-04-15 02:00:00,0.0,1.9170,0.0012,402.86,0.36,245.2,33.4,138.09,28.67,24.62,36.35,0.04,-272.73,-272.73,-53,561,-924,23.8,4.3,-19.9,23.7,4.5,-19.4,5.73,2.45,-24.2,27.7
2012-04-15 02:01:00,0.0,1.9174,0.0012,402.82,0.39,242.8,35.3,138.10,28.68,24.62,36.35,0.04,-272.74,-272.73,-54,561,-924,23.8,4.4,-19.7,23.7,4.5,-19.3,5.73,2.24,-24.2,27.3
2012-04-15 02:02:00,0.0,1.9170,0.0009,402.72,0.48,244.3,37.8,138.10,28.69,24.62,36.35,0.04,-272.74,-272.74,-54,561,-925,23.8,4.4,-19.6,23.7,4.6,-19.1,5.73,2.46,-24.3,27.1
2012-04-15 02:03:00,0.0,1.9168,0.0010,402.72,0.46,234.8,32.9,138.11,28.70,24.62,36.36,0.04,-272.73,-272.74,-54,561,-925,23.8,4.5,-19.4,23.7,4.7,-19.0,5.73,2.24,-24.3,26.9
2012-04-15 02:04:00,0.0,1.9167,0.0010,402.85,0.35,243.2,36.3,138.11,28.70,24.62,36.35,0.04,-272.73,-272.74,-54,562,-925,23.7,4.5,-19.3,23.6,4.7,-18.9,5.73,2.43,-24.4,26.7
2012-04-15 02:05:00,0.0,1.9163,0.0008,402.71,0.45,221.6,39.6,138.11,28.69,24.62,36.35,0.04,-272.74,-272.74,-54,562,-925,23.7,4.6,-19.2,23.6,4.7,-18.8,5.73,2.33,-24.5,26.6
2012-04-15 02:06:00,0.0,1.9160,0.0011,402.69,0.46,223.7,37.4,138.12,28.69,24.62,36.35,0.04,-272.73,-272.74,-54,561,-925,23.7,4.5,-19.3,23.6,4.7,-18.9,5.73,2.30,-24.5,26.5
2012-04-15 02:07:00,0.0,1.9159,0.0011,402.64,0.42,222.2,33.7,138.12,28.68,24.62,36.34,0.04,-272.73,-272.73,-54,562,-925,23.7,4.5,-19.3,23.6,4.7,-18.9,5.73,2.46,-24.6,26.4
2012-04-15 02:08:00,0.0,1.9166,0.0009,402.50,0.42,209.3,34.8,138.12,28.67,24.62,36.35,0.04,-272.73,-272.74,-54,562,-925,23.7,4.6,-19.2,23.5,4.8,-18.8,5.73,2.24,-24.6,26.3
2012-04-15 02:09:00,0.0,1.9151,0.0010,402.62,0.52,197.0,37.1,138.12,28.66,24.62,36.35,0.04,-272.74,-272.74,-54,561,-925,23.6,4.7,-19.0,23.5,4.9,-18.6,5.73,2.40,-24.7,26.4
2012-04-15 02:10:00,0.0,1.9153,0.0009,402.39,0.41,193.8,33.7,138.13,28.65,24.62,36.35,0.04,-272.74,-272.73,-55,561,-925,23.6,4.8,-18.8,23.5,4.9,-18.5,5.73,2.39,-24.7,26.3
2012-04-15 02:11:00,0.0,1.9152,0.0010,402.51,0.45,197.6,31.9,138.13,28.64,24.62,36.34,0.04,-272.73,-272.73,-54,561,-925,23.6,4.9,-18.6,23.5,5.0,-18.2,5.73,2.25,-24.7,26.2
2012-04-15 02:12:00,0.0,1.9148,0.0011,402.45,0.46,183.2,35.3,138.13,28.63,24.62,36.35,0.04,-272.74,-272.74,-54,561,-925,23.6,4.9,-18.4,23.5,5.1,-18.1,5.73,2.46,-24.8,26.3
2012-04-15 02:13:00,0.0,1.9140,0.0010,402.45,0.39,178.1,34.2,138.13,28.62,24.62,36.34,0.04,-272.73,-272.74,-55,561,-925,23.6,5.0,-18.2,23.5,5.2,-17.9,5.73,2.29,-24.8,26.2
2012-04-15 02:14:00,0.0,1.9138,0.0008,402.31,0.48,183.0,40.0,138.13,28.61,24.62,36.35,0.04,-272.74,-272.73,-54,562,-925,23.6,5.1,-17.9,23.4,5.3,-17.6,5.73,2.32,-24.8,26.1
2012-04-15 02:15:00,0.0,1.9137,0.0011,402.28,0.41,166.2,42.4,138.13,28.59,24.62,36.34,0.04,-272.74,-272.74,-54,561,-925,23.5,5.2,-17.8,23.4,5.4,-17.4,5.73,2.44,-24.9,26.3
2012-04-15 02:16:00,0.0,1.9135,0.0010,402.22,0.42,176.3,37.3,138.13,28.58,24.62,36.35,0.04,-272.74,-272.74,-55,561,-925,23.5,5.3,-17.7,23.4,5.5,-17.3,5.73,2.25,-24.8,26.9